Other Public Products
Issued by NWS Grand Forks, ND

Home | Current Version | Previous Version | Text Only | Print | Product List | Glossary On
Versions: 1 2 3 4 5 6 7 8 9 10 11 12 13 14 15 16 17 18 19 20 21 22 23 24 25 26 27 28 29 30 31 32 33 34 35 36 37 38 39 40 41 42 43 44 45 46 47 48 49 50
000
FPUS83 KFGF 182031
OPUFGF
PRAIRIE TO PINES WEATHER ROUNDUP
NATIONAL WEATHER SERVICE EASTERN NORTH DAKOTA/GRAND FORKS ND
200 PM CST THU DEC 18 2014

 **SATELLITE DATA USED TO AUGMENT SKY COVER AT AUTOMATED STATIONS**
 *****  WEATHER ACROSS EASTERN NORTH DAKOTA  *****

CITY           SKY/WX    TMP DP  RH WIND       PRES   REMARKS
GRAND FORKS    CLOUDY    18  13  80 S12       30.19F WCI   5
GRAND FORKS AF CLOUDY    18  17  95 S12       30.18F WCI   5
GRAND CITY NWS NOT AVBL
BUXTON           N/A     17  14  89 SE10        N/A  WCI   5
DEVILS LAKE    CLOUDY    19  10  68 S8        30.06F WCI   9
FARGO          CLOUDY    19  13  77 SE12      30.20F WCI   7
WAHPETON ARPT  CLOUDY    19  14  79 SE6       30.21F WCI  11
$$

 *****  WEATHER ACROSS CENTRAL AND WESTERN NORTH DAKOTA  *****

CITY           SKY/WX    TMP DP  RH WIND       PRES   REMARKS
JAMESTOWN      CLOUDY    21  16  81 S9        30.09F WCI  11
BISMARCK       CLOUDY    24  20  84 S6        30.04F WCI  17
MINOT          CLOUDY    21  17  84 S9        30.00F FOG     WCI  11
MINOT AFB      CLOUDY    21  21 100 SW8       30.00S WCI  12
GARRISON         N/A     23  19  85 S8        29.99F WCI  14
WILLISTON      CLOUDY    26  22  84 S3        29.96F
DICKINSON      CLOUDY    30  26  85 W8        29.92F WCI  22
HETTINGER      CLOUDY    31  27  85 SW7       29.96F WCI  24
$$

 *****  OTHER OBSERVATIONS NORTHEAST NORTH DAKOTA  *****

CITY           SKY/WX    TMP DP  RH WIND       PRES   REMARKS
WALHALLA         N/A     19  18  93 SE10      30.14F WCI   8
LANGDON        CLOUDY    21  16  79 S14       30.07F WCI   8
CAVALIER       CLOUDY    19  14  79 S9        30.16S WCI   9
GRAFTON        NOT AVBL
CANDO          CLOUDY    19  16  86 S12       30.07F WCI   7
FORT TOTTEN    NOT AVBL
ROLLA          CLOUDY    16  16 100 S10       30.04F WCI   3
RUGBY          MOCLDY    19  18  93 S9        30.04F WCI   9
 ***** THE ABOVE OBSERVATIONS ARE NON NWS ARE NOT QUALITY
        CONTROLLED AND MAY MIS-REPORT RAIN FOR SNOW...
$$

 *****  OTHER OBSERVATIONS SOUTHEAST NORTH DAKOTA *****

CITY           SKY/WX    TMP DP  RH WIND       PRES   REMARKS
COOPERSTOWN    NOT AVBL
VALLEY CITY    CLOUDY    19  19 100 S10       30.12S WCI   8
OAKES            N/A     23  23 100 S8        30.13S WCI  14
GWINNER        CLOUDY    25  21  86 MISG      30.15F
SHEYENNE NWR     N/A     20  14  76 SE8       29.95  WCI  10
BUFFALO        NOT AVBL
WYNDMERE         N/A     19  16  86 SE8         N/A  WCI   9
 ***** THE ABOVE OBSERVATIONS ARE NON NWS ARE NOT QUALITY
       CONTROLLED AND MAY MIS-REPORT RAIN FOR SNOW...
$$

  *****  WEATHER ACROSS NORTHERN MINNESOTA  *****

CITY           SKY/WX    TMP DP  RH WIND       PRES   REMARKS
FLAG ISLAND    SUNNY     16  10  79 SE7       30.20F WCI   6
WARROAD        MOSUNNY   21  16  79 S6        30.20F WCI  14
ROSEAU         SUNNY     21  16  79 S8        30.19F WCI  12
HALLOCK        MOSUNNY   19  16  86 S14       30.18F WCI   6
THF RVR FALLS  CLOUDY    19  14  79 S12       30.19F WCI   7
HALSTAD          N/A     19  12  74 S12         N/A  WCI   7
FOSSTON        PTSUNNY   18  12  79 S9        30.20S WCI   6
BAUDETTE       SUNNY     21  12  68 S12       30.20F WCI   9
WASKISH        FLURRIES  19  16  86 CALM      30.22F
CROOKSTON      CLOUDY    19  16  86 S10       30.20F WCI   8
$$
  *****  WEATHER ACROSS CENTRAL AND WEST MINNESOTA  *****

CITY           SKY/WX    TMP DP  RH WIND       PRES   REMARKS
BEMIDJI        FLURRIES  17  13  85 SE9       30.20F WCI   5
PARK RAPIDS    CLOUDY    18  12  77 S9        30.20F WCI   7
WADENA         CLOUDY    18  12  79 NW6       30.20F WCI   9
DETROIT LAKES  PTSUNNY   19  16  86 S9        30.20S WCI   9
MOORHEAD       CLOUDY    19  18  93 SE14      30.20F WCI   6
FERGUS FALLS   CLOUDY    18  12  79 SE10      30.24F WCI   6
ELBOW LAKE     CLOUDY    17  14  86 SE12      30.20F WCI   5
MORRIS MN      PTSUNNY   19  16  86 SE12      30.19F WCI   7
STAPLES        FLURRIES  18  12  79 SE5       30.21F WCI  11
WHEATON        CLOUDY    18  14  86 SE14      30.22S WCI   4
$$
  *****  WEATHER ELSEWHERE ACROSS MINNESOTA  *****

CITY           SKY/WX    TMP DP  RH WIND       PRES   REMARKS
DULUTH         CLOUDY    25  18  74 SE10      30.21F WCI  15
INTRNTL FALLS  CLOUDY    19  13  77 VRB3      30.24F
ELY            CLOUDY    21  18  86 E3        30.23S
CLOQUET        CLOUDY    25  19  80 E3        30.21F
BRAINERD       CLOUDY    20  15  81 S6        30.23F WCI  12
HIBBING        CLOUDY    23  17  78 CALM      30.22F
ALEXANDRIA     CLOUDY    18  12  77 S9        30.21F WCI   7
SAINT CLOUD    CLOUDY    21  14  74 SE6       30.25S HAZE    WCI  13
MINNEAPOLIS    FLURRIES  20  15  81 SE3       30.26F
$$

  *****  WEATHER ACROSS SOUTH DAKOTA  *****

CITY           SKY/WX    TMP DP  RH WIND       PRES   REMARKS
SIOUX FALLS    CLOUDY    25  21  85 S7        30.16F WCI  17
BROOKINGS      NOT AVBL
WATERTOWN      CLOUDY    23  19  85 S8        30.12F WCI  14
HURON          CLOUDY    25  21  85 S9        30.14F WCI  15
SISSETON       NOT AVBL
ABERDEEN       CLOUDY    24  20  84 S9        30.14F FOG     WCI  14
MITCHELL       CLOUDY    27  22  81 S8        30.16S WCI  19
PIERRE         CLOUDY    28  24  85 SE7       30.07F WCI  21
MOBRIDGE       CLOUDY    27  24  89 S12       30.02F FOG     WCI  17
RAPID CITY     SUNNY     39  29  67 E6        29.96F
$$

  *****  SOME WEATHER IN NEARBY STATES *****

CITY           SKY/WX    TMP DP  RH WIND       PRES   REMARKS
GLASGOW MT     MOSUNNY   30  25  81 SW3       29.91S
GREAT FALLS MT CLOUDY    41  25  53 SW18G26   29.89F
CHEYENNE WY    SUNNY     41  12  30 W20       29.99F
SCOTTSBLUFF NE SUNNY     20  16  84 NW5       30.03F FOG     WCI  13
OMAHA NE       FLURRIES  31  25  78 SE6       30.22F
DES MOINES IA  FLURRIES  31  20  63 CALM      30.23F
DAVENPORT IA   PTSUNNY   25  16  68 NW5       30.25F WCI  19
CHICAGO IL     CLOUDY    28  18  66 NW3       30.21F
EAU CLAIRE WI  CLOUDY    23  18  81 SW3       30.25F
LA CROSSE WI   CLOUDY    26  18  71 CALM      30.26F
$$

  *****  SOME NATIONAL WEATHER *****

CITY           SKY/WX    TMP DP  RH WIND       PRES   REMARKS
LA GUARDIA NY  PTSUNNY   42  25  50 W15G25    29.94R
RALEIGH NC     PTSUNNY   50  21  32 NW5       30.09F
ATLANTA GA     PTSUNNY   54  30  40 W3        30.10F
NEW ORLEANS LA CLOUDY    68  54  60 S10       30.09F
OKLAHOMA CITY  CLOUDY    43  39  86 CALM      30.13F FOG
ALBUQUERQUE NM PTSUNNY   42  28  57 W3        30.10F
SALT LAKE CITY MOSUNNY   42  32  67 SE7       30.13F
LOS ANGELES CA DRIZZLE   56  49  77 SW7       30.18F
BOISE ID       CLOUDY    47  31  53 S12       30.10S
SEATTLE WA     LGT RAIN  47  41  80 SE6       29.88F
$$

*** WEATHER ACROSS MANITOBA...SASKATCHEWAN AND ONTARIO ***
                ***ONTARIO***

CITY           SKY/WX    TMP DP  RH WIND       PRES   REMARKS
GERALDTON      SUNNY     18   7  62 W3        30.26S
THUNDER BAY    MOSUNNY   18   7  62 SW5       30.31  WCI  11
SIOUX LOOKOUT  MOSUNNY   12   5  73 SW5       30.25  WCI   4
TORONTO        CLOUDY    30  25  80 W16       30.07R WCI  19
BIG TROUT LK   CLEAR      9   5  85 SW3       30.19S
PICKLE LAKE    MOSUNNY   16   3  57 SW5       30.23S WCI   9
DRYDEN         CLOUDY    12  10  92 SE5       30.23F WCI   4
KENORA         PTSUNNY   18   9  68 S8        30.19F WCI   7
$$
                *** MANITOBA***

CITY           SKY/WX    TMP DP  RH WIND       PRES   REMARKS
BRANDON        PTSUNNY    9   7  92 E2        30.07
DAUPHIN        SUNNY     14  12  92 CALM      30.05F
ISLAND LAKE    PTCLDY    14  10  85 S5        30.13F WCI   6
PILOT MOUND      N/A     18  14  86 S15         N/A  WCI   3
THE PAS        LGT SNOW  14  10  85 S8        30.00S WCI   3
THOMPSON       NOT AVBL
WINNIPEG       MOSUNNY   18  12  79 S12       30.18F WCI   5
LYNN LAKE      LGT SNOW  12  10  92 SW5       29.90S WCI   4
CHURCHILL      PTCLDY     1   0  92 SW5       30.01R WCI  -8
GILLAM         PTCLDY     7   1  78 SW8       30.05  WCI  -6
$$
                ***SASKATCHEWAN***

CITY           SKY/WX    TMP DP  RH WIND       PRES   REMARKS
ESTEVAN        FLURRIES  23  18  80 S8        29.95F WCI  14
KINDERSLEY     PTSUNNY   14  10  85 W5        29.85  WCI   6
LLOYDMINSTER   FOG       18  16  93 W6        29.84S VSB 5/8 WCI   9
PRINCE ALBERT  CLOUDY    19  18  93 W3        29.89  FOG
REGINA         CLOUDY    25  23  93 S8        29.90F WCI  16



USA.gov is the U.S. government's official web portal to all federal, state and local government web resources and services.